Date String (YYYY-MM-DD hh:mm:ss) UTC,Instrument flags,Ambient pressure (hPa),Sample flow (lpm),Bypass flow (lpm),Sample temperature (°C),Ambient temperature (°C),ASC tube jacket temperature (°C),LED temperature (°C),Box temperature (°C),Sample RH (%),Span deviation,Mass concentration (μg/m³),Mass concentration (μg/m³),Mass concentration (μg/m³)
DateTimeUTC,F1_M11,P_M11,Q1_M11,Q2_M11,T1_M11,T2_M11,T3_M11,T4_M11,T5_M11,U1_M11,ZSPAN_M11,X0_M11,X2_M11,X1_M11
2023-04-21 22:00:00,,0828.1,5.00,0.00,23.5,22.0,00.0,31.8,25.0,10.3,0000.0,0004.03,0002.13,0001.24
2023-04-21 22:01:00,,0828.2,5.00,0.00,23.5,22.0,00.0,31.8,25.0,10.0,0000.0,0004.22,0002.18,0001.25
2023-04-21 22:02:00,,0828.2,4.99,0.00,23.5,22.0,00.0,31.8,25.1,09.9,0000.0,0004.29,0002.21,0001.24
2023-04-21 22:03:00,,0828.2,4.99,0.00,23.5,22.0,00.0,31.8,25.0,09.8,0000.0,0004.24,0002.20,0001.23
2023-04-21 22:04:00,,0828.2,5.01,0.00,23.5,22.0,00.0,31.8,25.0,09.8,0000.0,0004.29,0002.21,0001.22
2023-04-21 22:05:00,,0828.1,5.01,0.00,23.5,22.0,00.0,31.8,25.1,09.9,0000.0,0004.42,0002.21,0001.21
2023-04-21 22:06:00,,0828.1,5.00,0.00,23.5,22.1,00.0,31.8,25.1,10.0,0000.0,0004.48,0002.18,0001.20
2023-04-21 22:07:00,,0828.1,5.01,0.00,23.5,22.1,00.0,31.8,25.1,10.1,0000.0,0004.36,0002.15,0001.20
2023-04-21 22:08:00,,0828.1,5.01,0.00,23.5,22.1,00.0,31.8,25.1,10.1,0000.0,0004.21,0002.14,0001.18
2023-04-21 22:09:00,,0827.9,4.99,0.00,23.5,22.1,00.0,31.8,25.1,10.1,0000.0,0004.21,0002.13,0001.16
2023-04-21 22:10:00,,0827.8,5.00,0.00,23.5,22.0,00.0,31.8,25.1,10.2,0000.0,0004.68,0002.15,0001.14
2023-04-21 22:11:00,,0827.9,4.99,0.00,23.5,22.0,00.0,31.8,25.0,10.3,0000.0,0004.71,0002.11,0001.12
2023-04-21 22:12:00,,0828.0,5.00,0.00,23.5,22.0,00.0,31.8,25.0,10.3,0000.0,0004.53,0002.03,0001.09
2023-04-21 22:13:00,,0828.0,5.00,0.00,23.5,21.9,00.0,31.8,25.0,10.4,0000.0,0004.50,0002.04,0001.09
2023-04-21 22:14:00,,0827.9,4.99,0.00,23.5,21.9,00.0,31.8,25.0,10.4,0000.0,0004.71,0002.04,0001.10
2023-04-21 22:15:00,,0827.9,4.99,0.00,23.5,21.9,00.0,31.8,25.0,10.3,0000.0,0005.09,0002.01,0001.10
2023-04-21 22:16:00,,0827.8,5.00,0.00,23.5,21.9,00.0,31.8,25.0,10.2,0000.0,0004.88,0001.99,0001.09
2023-04-21 22:17:00,,0827.8,5.00,0.00,23.5,21.9,00.0,31.8,25.0,10.1,0000.0,0004.74,0001.99,0001.08
2023-04-21 22:18:00,,0828.0,5.00,0.00,23.5,21.9,00.0,31.8,25.0,10.2,0000.0,0004.76,0001.98,0001.07
2023-04-21 22:19:00,,0828.1,5.00,0.00,23.5,21.9,00.0,31.8,25.0,10.2,0000.0,0005.90,0001.98,0001.07
2023-04-21 22:20:00,,0828.1,5.00,0.00,23.5,21.9,00.0,31.8,25.0,10.4,0000.0,0006.15,0001.92,0001.06
2023-04-21 22:21:00,,0828.1,5.00,0.00,23.5,21.9,00.0,31.8,25.0,10.5,0000.0,0005.56,0001.83,0001.05
2023-04-21 22:22:00,,0828.1,5.01,0.00,23.5,21.9,00.0,31.8,25.0,10.9,0000.0,0005.86,0001.89,0001.06
2023-04-21 22:23:00,,0828.2,5.00,0.00,23.5,22.0,00.0,31.8,25.0,10.9,0000.0,0006.62,0002.01,0001.09
2023-04-21 22:24:00,,0828.3,5.00,0.00,23.5,22.0,00.0,31.8,25.1,11.0,0000.0,0006.95,0002.11,0001.12
2023-04-21 22:25:00,,0828.3,4.99,0.00,23.5,22.0,00.0,31.8,25.1,11.2,0000.0,0006.91,0002.14,0001.13
2023-04-21 22:26:00,,0828.3,5.00,0.00,23.5,22.1,00.0,31.8,25.1,11.3,0000.0,0006.79,0002.26,0001.14
2023-04-21 22:27:00,,0828.3,5.00,0.00,23.6,22.1,00.0,31.8,25.1,11.3,0000.0,0006.99,0002.33,0001.16
2023-04-21 22:28:00,,0827.9,5.00,0.00,23.6,22.1,00.0,31.8,25.1,11.2,0000.0,0007.36,0002.39,0001.18
2023-04-21 22:29:00,,0828.2,5.00,0.00,23.6,22.1,00.0,31.8,25.1,11.0,0000.0,0007.49,0002.43,0001.19
2023-04-21 22:30:00,,0828.2,5.01,0.00,23.6,22.2,00.0,31.8,25.1,10.9,0000.0,0006.71,0002.50,0001.20
2023-04-21 22:31:00,,0828.1,4.99,0.00,23.6,22.2,00.0,31.9,25.1,11.0,0000.0,0006.39,0002.51,0001.20
2023-04-21 22:32:00,,0828.2,5.01,0.00,23.6,22.1,00.0,31.9,25.1,11.2,0000.0,0006.52,0002.57,0001.21
2023-04-21 22:33:00,,0828.2,5.00,0.00,23.6,22.1,00.0,31.9,25.1,11.6,0000.0,0006.43,0002.60,0001.23
2023-04-21 22:34:00,,0828.1,5.00,0.00,23.6,22.1,00.0,31.9,25.1,11.5,0000.0,0005.85,0002.59,0001.22
2023-04-21 22:35:00,,0828.2,5.00,0.00,23.6,22.2,00.0,31.9,25.2,11.3,0000.0,0006.05,0002.44,0001.21
2023-04-21 22:36:00,,0828.3,5.01,0.00,23.6,22.2,00.0,31.9,25.2,10.8,0000.0,0005.99,0002.39,0001.20
2023-04-21 22:37:00,,0828.3,5.00,0.00,23.6,22.2,00.0,31.9,25.2,10.8,0000.0,0005.65,0002.29,0001.18
2023-04-21 22:38:00,,0828.3,5.00,0.00,23.6,22.2,00.0,31.9,25.2,11.2,0000.0,0005.51,0002.23,0001.16
2023-04-21 22:39:00,,0828.3,5.00,0.00,23.7,22.2,00.0,31.9,25.2,11.5,0000.0,0005.23,0002.21,0001.16
2023-04-21 22:40:00,,0828.3,5.00,0.00,23.7,22.3,00.0,31.9,25.2,11.5,0000.0,0004.95,0002.20,0001.17
2023-04-21 22:41:00,,0828.2,4.99,0.00,23.7,22.3,00.0,31.9,25.2,11.3,0000.0,0004.69,0002.11,0001.17
2023-04-21 22:42:00,,0828.2,4.99,0.00,23.7,22.3,00.0,31.9,25.2,11.2,0000.0,0004.79,0002.14,0001.18
2023-04-21 22:43:00,,0828.2,5.01,0.00,23.7,22.3,00.0,31.9,25.3,11.2,0000.0,0004.90,0002.12,0001.20
2023-04-21 22:44:00,,0828.2,5.01,0.00,23.7,22.3,00.0,31.9,25.3,11.2,0000.0,0004.76,0002.04,0001.19
2023-04-21 22:45:00,,0828.2,5.01,0.00,23.7,22.4,00.0,32.0,25.3,11.5,0000.0,0004.89,0001.97,0001.17
2023-04-21 22:46:00,,0828.2,4.99,0.00,23.7,22.4,00.0,32.0,25.3,11.6,0000.0,0004.78,0002.01,0001.17
2023-04-21 22:47:00,,0828.2,4.99,0.00,23.8,22.4,00.0,32.0,25.3,11.6,0000.0,0004.69,0002.01,0001.17
2023-04-21 22:48:00,,0828.2,5.00,0.00,23.8,22.4,00.0,32.0,25.3,11.7,0000.0,0004.68,0002.02,0001.18
2023-04-21 22:49:00,,0828.1,5.01,0.00,23.8,22.4,00.0,32.0,25.3,11.9,0000.0,0004.87,0002.01,0001.19
2023-04-21 22:50:00,,0828.1,5.01,0.00,23.8,22.4,00.0,32.0,25.3,12.1,0000.0,0004.96,0002.02,0001.19
2023-04-21 22:51:00,,0828.2,5.02,0.00,23.8,22.4,00.0,32.0,25.3,12.1,0000.0,0005.97,0002.01,0001.18
2023-04-21 22:52:00,,0828.2,5.01,0.00,23.8,22.4,00.0,32.0,25.3,12.2,0000.0,0007.01,0002.11,0001.18
2023-04-21 22:53:00,,0828.2,5.00,0.00,23.8,22.3,00.0,32.0,25.3,12.2,0000.0,0007.59,0002.07,0001.18
2023-04-21 22:54:00,,0828.1,5.00,0.00,23.8,22.3,00.0,32.0,25.4,12.0,0000.0,0007.61,0002.03,0001.17
2023-04-21 22:55:00,,0828.2,5.00,0.00,23.8,22.3,00.0,32.0,25.3,12.1,0000.0,0007.60,0002.03,0001.16
2023-04-21 22:56:00,,0828.2,4.99,0.00,23.8,22.3,00.0,32.1,25.3,12.1,0000.0,0007.51,0002.07,0001.15
2023-04-21 22:57:00,,0828.2,5.00,0.00,23.8,22.3,00.0,32.1,25.4,12.0,0000.0,0007.99,0002.06,0001.15
2023-04-21 22:58:00,,0828.2,5.00,0.00,23.8,22.3,00.0,32.1,25.4,12.1,0000.0,0008.15,0002.04,0001.14
2023-04-21 22:59:00,,0828.2,5.00,0.00,23.8,22.3,00.0,32.1,25.3,12.3,0000.0,0008.53,0002.05,0001.14
